Wenatchee, WA
on Tuesday, January 15, 2013

Tuesday
Previous Day Next Day
Daily Summary
 ActualAverageRecord
Temperature
Mean Temperature °F 28°F  
Max Temperature 28°F 33°F 53°F (1974)
Min Temperature 13°F 22°F 3°F (1997)
Degree Days
Heating Degree Days 44 37  
Month to date heating degree days 628 578  
Since 1 July heating degree days 3291 3676  
Cooling Degree Days 0 0  
Month to date cooling degree days 0 0  
Year to date cooling degree days 0 0  
Moisture
Dew Point 15°F   
Average Humidity 83    
Maximum Humidity 93    
Minimum Humidity 71    
Precipitation
Precipitation 0.00 in 0.06 in 0.39 in (1974)
Month to date precipitation 0.91 1.03  
Year to date precipitation 0.91 1.03  
Snow
Snow 0.00 in 0.50 in in ()
Month to date snowfall 11.0 8.7  
Since 1 July snowfall 41.3 33.6  
Snow Depth 5.00 in   
Wind
Wind Speed 0 mph   
Max Wind Speed 6 mph   
Max Gust Speed mph   
Visibility 9 miles   
Events     

Key: T is trace of precipitation, MM is missing value
Source: NWS Daily Summary
Time(PST)TemperatureDew PointHumidity Pressure Visibility Wind DirectionWind SpeedGust SpeedPrecipitationEvents Conditions
12:55 AM 19.0°F 15.1°F 85% 30.54 in 10.0 miles Calm Calm - N/A   Clear
1:55 AM 19.0°F 15.1°F 85% 30.56 in 10.0 miles Calm Calm - N/A   Clear
2:55 AM 18.0°F 14.0°F 84% 30.57 in 10.0 miles Calm Calm - N/A   Clear
3:55 AM 19.0°F 14.0°F 81% 30.58 in 10.0 miles Calm Calm - N/A   Clear
4:55 AM 19.0°F 15.1°F 85% 30.58 in 10.0 miles Calm Calm - N/A   Clear
5:55 AM 19.0°F 15.1°F 85% 30.58 in 9.0 miles Calm Calm - N/A   Clear
6:55 AM 17.1°F 12.9°F 84% 30.61 in 8.0 miles NNE 3.5 mph - N/A   Clear
7:55 AM 17.1°F 12.0°F 81% 30.63 in 8.0 miles Calm Calm - N/A   Clear
8:55 AM 17.1°F 14.0°F 88% 30.65 in 6.0 miles Calm Calm - N/A   Clear
9:55 AM 18.0°F 16.0°F 92% 30.65 in 6.0 miles Calm Calm - N/A   Clear
10:55 AM 19.9°F 16.0°F 85% 30.66 in 6.0 miles Calm Calm - N/A   Clear
11:55 AM 21.9°F 17.1°F 82% 30.66 in 10.0 miles Calm Calm - N/A   Clear
12:55 PM 24.1°F 18.0°F 77% 30.65 in 9.0 miles Calm Calm - N/A   Clear
1:55 PM 26.1°F 18.0°F 71% 30.63 in 10.0 miles Calm Calm - N/A   Clear
2:55 PM 26.1°F 18.0°F 71% 30.64 in 10.0 miles Calm Calm - N/A   Clear
3:55 PM 25.0°F 18.0°F 75% 30.65 in 10.0 miles Calm Calm - N/A   Clear
4:55 PM 21.9°F 16.0°F 78% 30.65 in 10.0 miles West 5.8 mph - N/A   Clear
5:55 PM 19.0°F 14.0°F 81% 30.65 in 10.0 miles WNW 4.6 mph - N/A   Clear
6:55 PM 19.9°F 15.1°F 81% 30.66 in 10.0 miles Calm Calm - N/A   Clear
7:55 PM 19.9°F 15.1°F 81% 30.66 in 10.0 miles Calm Calm - N/A   Clear
8:55 PM 18.0°F 15.1°F 88% 30.66 in 8.0 miles Calm Calm - N/A   Clear
10:38 PM 17.6°F 15.8°F 93% 30.57 in 8.0 miles Calm Calm - N/A   Partly Cloudy
10:51 PM 19.4°F 15.8°F 86% 30.57 in 8.0 miles Calm Calm - N/A   Mostly Cloudy
10:55 PM 19.0°F 15.1°F 85% 30.63 in 8.0 miles Calm Calm - N/A   Mostly Cloudy
11:55 PM 19.9°F 15.1°F 81% 30.62 in 9.0 miles Calm Calm - N/A   Overcast
Moon Phase
Jan. 15 Jan. 18 Jan. 26 Feb. 03 Feb. 10
Sunrise:07:43 AM (PST) Moon Rise:09:29 AM (PST)1/15
Sunset:04:37 PM (PST) Moon Set:09:57 PM (PST)1/15

Copyright © 2014 The Weather Underground, Inc.